Location: Newark
(21.1200°N, 73.4000°E)
Time: 22:20:13
(UTC+00:00)

Vanguard 2 Rocket - Pass Details

Date: 24 January 2020
Orbit: 554 x 3327 km, 32.9° (Epoch: 19 February)

Event Time Altitude Azimuth Distance (km) Brightness Sun altitude
Exits shadow 23:07:32 13° 53° (NE) 1,901 8.9 -36.5°
Drops below altitude 10° 23:08:10 10° 55° (NE) 2,159 9.3 -36.4°
Sets 23:11:03 0° 60° (ENE) 3,350 10.4 -35.7°
